EW7425 Weather Reports


time (UTC)temp
C
wind
direction
speed
KPH
gust
KPH
rain 1hr
cm
rain 24hr
cm
rain mn
cm
humidity
%
barometer
mb
20260508091003 2 0 0.0 0.0 0.00 0.00 0.00 76 1005.4
20260508090503 2 270 0.0 3.2 0.00 0.00 0.00 76 1005.4
20260508090003 2 270 1.6 4.8 0.00 0.00 0.00 76 1005.2
20260508085524 2 270 1.6 4.8 0.00 0.00 0.00 75 1005.2
20260508085024 2 268 1.6 4.8 0.00 0.00 0.00 75 1005.4
20260508084503 3 262 1.6 4.8 0.00 0.00 0.00 75 1005.2
20260508084024 3 260 3.2 6.4 0.00 0.00 0.00 75 1005.0
20260508083503 2 257 3.2 9.7 0.00 0.00 0.00 75 1005.1
20260508083003 3 250 3.2 9.7 0.00 0.00 0.00 74 1005.1
20260508082524 3 247 3.2 9.7 0.00 0.00 0.00 74 1005.1
20260508082024 3 255 1.6 9.7 0.00 0.00 0.00 74 1005.3
20260508081504 3 252 0.0 3.2 0.00 0.00 0.00 74 1005.2
20260508081003 3 252 0.0 3.2 0.00 0.00 0.00 73 1005.1
20260508080524 3 252 1.6 3.2 0.00 0.00 0.00 72 1005.1
20260508080004 3 252 1.6 8.0 0.00 0.00 0.00 71 1005.1
20260508075503 3 242 3.2 8.0 0.00 0.00 0.00 71 1004.9
20260508075024 3 234 3.2 6.4 0.00 0.00 0.00 71 1005.0
20260508074503 3 244 3.2 6.4 0.00 0.00 0.00 71 1004.9
20260508074003 3 253 3.2 6.4 0.00 0.00 0.00 71 1004.9
20260508073503 3 256 3.2 9.7 0.00 0.00 0.00 71 1004.9
20260508073003 3 257 4.8 11.3 0.00 0.00 0.00 70 1004.9
20260508072503 4 247 4.8 11.3 0.00 0.00 0.00 70 1004.9
20260508072003 4 238 4.8 8.0 0.00 0.00 0.00 69 1004.8
20260508071503 4 233 4.8 8.0 0.00 0.00 0.00 68 1004.8
20260508071024 4 234 3.2 8.0 0.00 0.00 0.00 68 1004.9
20260508070524 4 239 3.2 9.7 0.00 0.00 0.00 68 1005.0
20260508070004 5 241 3.2 12.9 0.00 0.00 0.00 67 1005.1
20260508065503 5 254 4.8 12.9 0.00 0.00 0.00 67 1005.1
20260508065003 5 256 4.8 11.3 0.00 0.03 0.00 67 1005.0
20260508064503 5 254 4.8 12.9 0.00 0.03 0.00 66 1005.1
20260508064024 5 256 4.8 12.9 0.00 0.03 0.00 67 1005.1
20260508063503 5 258 6.4 12.9 0.00 0.03 0.00 66 1005.1
20260508063003 5 261 6.4 14.5 0.00 0.03 0.00 66 1005.3
20260508062504 5 266 6.4 14.5 0.00 0.03 0.00 65 1005.2
20260508062003 5 265 4.8 14.5 0.00 0.03 0.00 65 1005.2
20260508061503 5 261 4.8 12.9 0.00 0.03 0.00 64 1005.2
20260508061024 5 261 6.4 14.5 0.00 0.03 0.00 64 1005.3
20260508060503 5 256 6.4 14.5 0.00 0.03 0.00 63 1005.4
20260508060003 5 256 8.0 16.1 0.00 0.05 0.00 63 1005.4
20260508055503 5 260 8.0 16.1 0.00 0.08 0.00 62 1005.4
20260508055003 6 262 8.0 16.1 0.00 0.13 0.00 62 1005.5
20260508054503 6 264 8.0 16.1 0.00 0.15 0.00 60 1005.5
20260508054003 6 267 8.0 16.1 0.00 0.18 0.00 61 1005.5
20260508053503 6 267 8.0 16.1 0.00 0.18 0.00 61 1005.5
20260508053003 6 264 6.4 16.1 0.00 0.18 0.00 60 1005.5
20260508052503 6 262 8.0 19.3 0.00 0.23 0.00 60 1005.5
20260508052003 6 261 8.0 19.3 0.00 0.23 0.00 59 1005.5
20260508051503 6 260 9.7 22.5 0.00 0.25 0.00 60 1005.5
20260508051003 6 260 9.7 22.5 0.00 0.28 0.00 61 1005.4
20260508050503 6 261 9.7 16.1 0.00 0.28 0.00 61 1005.4
20260508050003 6 262 8.0 16.1 0.00 0.30 0.00 62 1005.5
20260508045503 5 260 8.0 16.1 0.00 0.33 0.00 63 1005.6
20260508045024 5 258 6.4 16.1 0.00 0.33 0.00 64 1005.7
20260508044503 5 259 6.4 16.1 0.00 0.36 0.00 64 1005.7
20260508044003 5 268 6.4 14.5 0.00 0.36 0.00 64 1005.8
20260508043503 5 278 4.8 11.3 0.00 0.36 0.00 64 1005.7
20260508043003 5 280 4.8 11.3 0.00 0.38 0.00 64 1005.7
20260508042524 5 281 4.8 11.3 0.00 0.38 0.00 65 1005.8
20260508042003 5 273 3.2 8.0 0.00 0.38 0.00 65 1005.9
20260508041504 5 252 1.6 6.4 0.00 0.41 0.00 65 1006.1
20260508041003 5 229 0.0 6.4 0.00 0.41 0.00 66 1006.1
20260508040503 5 229 0.0 6.4 0.00 0.41 0.00 65 1006.2
20260508040003 5 0 0.0 0.0 0.00 0.41 0.00 64 1006.2
20260508035503 5 0 0.0 0.0 0.00 0.41 0.41 63 1006.2
20260508035024 5 0 0.0 0.0 0.00 0.41 0.41 62 1006.2
20260508034503 5 0 0.0 0.0 0.00 0.41 0.41 63 1006.4
20260508034024 5 0 0.0 0.0 0.00 0.43 0.41 64 1006.3
20260508033503 5 246 0.0 6.4 0.00 0.43 0.41 64 1006.3
20260508033024 6 265 1.6 6.4 0.00 0.43 0.41 63 1006.2
20260508032503 6 259 3.2 6.4 0.00 0.43 0.41 62 1006.0
20260508032003 6 242 3.2 6.4 0.00 0.43 0.41 60 1006.0
20260508031503 6 228 3.2 4.8 0.00 0.43 0.41 58 1006.0
20260508031003 6 227 1.6 4.8 0.00 0.43 0.41 58 1006.2
20260508030503 6 227 0.0 1.6 0.00 0.43 0.41 60 1006.2
20260508030003 6 227 0.0 3.2 0.00 0.43 0.41 60 1006.1
20260508025524 6 231 1.6 4.8 0.00 0.43 0.41 58 1006.1
20260508025003 7 256 1.6 11.3 0.00 0.43 0.41 55 1006.0
20260508024503 7 268 4.8 11.3 0.00 0.43 0.41 56 1005.8
20260508024003 7 280 4.8 11.3 0.00 0.43 0.41 57 1005.9
20260508023503 7 275 4.8 11.3 0.00 0.43 0.41 56 1005.8
20260508023003 7 268 4.8 11.3 0.00 0.43 0.41 57 1005.7
20260508022503 7 280 3.2 9.7 0.00 0.43 0.41 55 1005.8
20260508022003 7 278 3.2 9.7 0.00 0.43 0.41 54 1005.9
20260508021524 7 267 3.2 6.4 0.00 0.43 0.41 54 1005.8
20260508021003 8 283 4.8 11.3 0.00 0.43 0.41 52 1005.8
20260508020524 8 293 4.8 14.5 0.00 0.43 0.41 51 1005.8
20260508020003 8 282 4.8 14.5 0.00 0.43 0.41 51 1005.9
20260508015503 8 269 4.8 14.5 0.00 0.43 0.41 51 1005.8
20260508015003 8 277 4.8 14.5 0.00 0.43 0.41 51 1005.8
20260508014503 8 297 4.8 14.5 0.00 0.43 0.41 51 1005.7
20260508014003 8 301 6.4 14.5 0.00 0.43 0.41 50 1005.8
20260508013503 8 300 8.0 16.1 0.00 0.43 0.41 50 1005.9
20260508013003 8 303 6.4 16.1 0.00 0.43 0.41 49 1005.9
20260508012503 8 297 6.4 16.1 0.00 0.43 0.41 49 1005.9
20260508012003 8 295 4.8 12.9 0.00 0.43 0.41 50 1006.0
20260508011524 8 293 3.2 12.9 0.00 0.43 0.41 50 1006.0
20260508011003 9 295 4.8 14.5 0.00 0.43 0.41 50 1005.9
20260508010503 9 301 6.4 17.7 0.00 0.43 0.41 49 1005.9
20260508010003 9 298 6.4 17.7 0.00 0.43 0.41 49 1005.9
20260508005503 9 292 4.8 16.1 0.00 0.43 0.41 49 1005.8
20260508005003 9 296 6.4 17.7 0.00 0.43 0.41 49 1005.9
20260508004503 10 300 8.0 19.3 0.00 0.43 0.41 48 1005.7
20260508004024 10 303 8.0 19.3 0.00 0.43 0.41 48 1005.7
20260508003503 10 309 9.7 22.5 0.00 0.43 0.41 48 1005.6
20260508003024 10 306 12.9 25.7 0.00 0.43 0.41 47 1005.6
20260508002503 10 302 14.5 33.8 0.00 0.43 0.41 46 1005.5
20260508002003 10 302 12.9 33.8 0.00 0.43 0.41 46 1005.5
20260508001503 10 309 11.3 20.9 0.00 0.43 0.41 47 1005.4
20260508001003 10 309 11.3 27.4 0.00 0.43 0.41 47 1005.4
20260508000503 11 311 14.5 30.6 0.00 0.43 0.41 46 1005.4
20260508000003 11 313 16.1 30.6 0.00 0.43 0.41 46 1005.2
20260507235503 11 315 14.5 27.4 0.00 0.43 0.41 46 1005.1
20260507235003 11 308 14.5 30.6 0.00 0.43 0.41 46 1005.1
20260507234524 11 305 12.9 30.6 0.00 0.43 0.41 45 1004.9
20260507234003 11 309 11.3 30.6 0.00 0.43 0.41 46 1004.8
20260507233524 12 308 12.9 29.0 0.00 0.43 0.41 46 1004.7
20260507233024 12 312 14.5 33.8 0.00 0.43 0.41 46 1004.6
20260507232503 12 312 14.5 33.8 0.00 0.43 0.41 47 1004.4
20260507232003 12 308 14.5 33.8 0.00 0.46 0.41 47 1004.3
20260507231503 12 307 14.5 38.6 0.00 0.46 0.41 47 1004.1
20260507231003 13 302 16.1 38.6 0.00 0.46 0.41 48 1003.9
20260507230524 13 301 12.9 30.6 0.00 0.46 0.41 47 1003.9
20260507230003 13 300 12.9 30.6 0.00 0.48 0.41 48 1003.6
20260507225503 13 298 12.9 27.4 0.00 0.51 0.41 49 1003.5
20260507225003 14 301 11.3 27.4 0.00 0.51 0.41 47 1003.3
20260507224504 14 302 9.7 22.5 0.00 0.56 0.41 46 1003.1
20260507224003 14 316 9.7 22.5 0.00 0.58 0.41 46 1003.0
20260507223503 15 317 12.9 30.6 0.00 0.61 0.41 45 1002.9
20260507223003 15 304 12.9 30.6 0.00 0.64 0.41 44 1002.9
20260507222503 15 297 12.9 24.1 0.00 0.64 0.41 43 1003.0
20260507222003 15 285 14.5 27.4 0.00 0.69 0.41 41 1002.8
20260507221503 16 283 14.5 27.4 0.00 0.69 0.41 39 1002.7
20260507221024 16 292 11.3 25.7 0.00 0.71 0.41 38 1002.7
20260507220503 16 284 11.3 22.5 0.00 0.76 0.41 39 1002.6
20260507220003 16 279 12.9 29.0 0.00 0.79 0.41 41 1002.5
20260507215503 16 282 12.9 30.6 0.00 0.81 0.41 41 1002.5
20260507215003 16 282 9.7 30.6 0.00 0.81 0.41 43 1002.4
20260507214503 15 269 8.0 20.9 0.00 0.81 0.41 48 1002.6
20260507214003 15 265 9.7 20.9 0.00 0.84 0.41 47 1002.5
20260507213503 15 265 8.0 20.9 0.00 0.86 0.41 48 1002.5
20260507213003 16 251 8.0 17.7 0.00 0.89 0.41 49 1002.6
20260507212503 15 254 11.3 24.1 0.00 0.89 0.41 48 1002.5
20260507212003 15 262 11.3 24.1 0.00 0.91 0.41 48 1002.6
20260507211503 15 263 11.3 25.7 0.00 0.94 0.41 49 1002.5
20260507211003 15 263 12.9 25.7 0.00 0.94 0.41 50 1002.4
20260507210503 15 265 11.3 24.1 0.00 0.94 0.41 48 1002.4
20260507210003 15 257 11.3 20.9 0.00 0.94 0.41 49 1002.4
20260507205503 15 245 9.7 20.9 0.00 0.97 0.41 51 1002.3
20260507205003 15 253 8.0 16.1 0.00 0.97 0.41 49 1002.2
20260507204503 15 260 9.7 24.1 0.00 0.97 0.41 50 1002.2
20260507204003 15 256 9.7 24.1 0.00 0.99 0.41 50 1002.1
20260507203503 15 259 9.7 22.5 0.00 1.02 0.41 50 1002.1
20260507203003 16 259 9.7 22.5 0.00 1.02 0.41 50 1002.1
20260507202503 16 253 9.7 24.1 0.00 1.02 0.41 51 1002.1
20260507202024 15 254 9.7 24.1 0.00 1.02 0.41 52 1001.9
20260507201503 15 268 6.4 20.9 0.00 1.02 0.41 53 1002.0
20260507201003 15 277 4.8 14.5 0.00 1.02 0.41 55 1002.0
20260507200524 15 284 6.4 14.5 0.00 1.02 0.41 54 1002.0
20260507200003 15 306 4.8 14.5 0.00 1.02 0.41 57 1002.0
20260507195503 15 308 4.8 12.9 0.00 1.02 0.41 57 1002.1
20260507195003 15 295 6.4 12.9 0.00 1.02 0.41 58 1002.1
20260507194503 15 298 8.0 22.5 0.00 1.02 0.41 55 1002.1
20260507194003 16 295 11.3 24.1 0.00 1.02 0.41 54 1002.1
20260507193503 17 275 9.7 24.1 0.00 1.02 0.41 51 1002.0
20260507193003 16 249 9.7 22.5 0.00 1.02 0.41 50 1002.1
20260507192503 16 235 12.9 24.1 0.00 1.02 0.41 49 1002.0
20260507192003 16 222 12.9 27.4 0.00 1.02 0.41 48 1002.0
20260507191503 16 226 11.3 27.4 0.00 1.02 0.41 47 1002.0
20260507191024 17 246 11.3 19.3 0.00 1.02 0.41 46 1002.2
20260507190503 17 246 11.3 22.5 0.00 1.02 0.41 47 1002.1
20260507190004 16 241 14.5 32.2 0.00 1.02 0.41 47 1002.2
20260507185524 17 241 16.1 32.2 0.00 1.02 0.41 47 1002.2
20260507185024 17 238 11.3 27.4 0.00 1.02 0.41 49 1002.2
20260507184524 16 240 11.3 32.2 0.00 1.02 0.41 51 1002.3
20260507184003 16 235 12.9 32.2 0.00 1.02 0.41 48 1002.3
20260507183503 16 236 11.3 25.7 0.00 1.02 0.41 47 1002.3
20260507183024 16 246 12.9 27.4 0.00 1.02 0.41 48 1002.4
20260507182503 16 241 12.9 27.4 0.00 1.02 0.41 50 1002.6
20260507182003 16 238 12.9 22.5 0.00 1.02 0.41 49 1002.6
20260507181503 17 241 11.3 22.5 0.00 1.02 0.41 48 1002.6
20260507181003 17 255 9.7 17.7 0.00 1.02 0.41 48 1002.7
20260507180503 17 259 9.7 24.1 0.00 1.02 0.41 47 1002.6
20260507180003 16 251 9.7 24.1 0.00 1.02 0.41 48 1002.7
20260507175503 16 248 11.3 20.9 0.00 1.02 0.41 49 1002.8
20260507175024 16 248 9.7 20.9 0.00 1.02 0.41 49 1002.8
20260507174503 16 246 6.4 17.7 0.00 1.02 0.41 50 1002.9
20260507174003 15 251 8.0 17.7 0.00 1.02 0.41 51 1002.9
20260507173503 16 272 6.4 16.1 0.00 1.02 0.41 50 1002.9
20260507173003 15 294 4.8 16.1 0.00 1.02 0.41 51 1002.9
20260507172503 15 298 4.8 14.5 0.00 1.02 0.41 47 1003.0
20260507172003 15 293 6.4 16.1 0.00 1.02 0.41 50 1002.9
20260507171524 15 305 8.0 16.1 0.00 1.02 0.41 50 1002.9
20260507171003 16 305 6.4 16.1 0.00 1.02 0.41 51 1003.0
20260507170503 15 294 6.4 14.5 0.00 1.02 0.41 54 1003.1
20260507170003 15 296 6.4 16.1 0.00 1.02 0.41 54 1003.2
20260507165503 15 270 6.4 20.9 0.00 1.02 0.41 54 1003.2
20260507165003 16 244 9.7 20.9 0.00 1.02 0.41 53 1003.3
20260507164503 16 245 9.7 20.9 0.00 1.02 0.41 55 1003.3
20260507164024 16 282 9.7 20.9 0.00 1.02 0.41 51 1003.3
20260507163524 15 307 8.0 16.1 0.00 1.02 0.41 52 1003.4
20260507163003 15 275 8.0 16.1 0.00 1.02 0.41 52 1003.6
20260507162503 15 268 6.4 16.1 0.00 1.02 0.41 54 1003.7
20260507162003 14 254 6.4 16.1 0.00 1.02 0.41 54 1003.8
20260507161503 15 223 6.4 16.1 0.00 1.02 0.41 56 1003.8
20260507161024 15 235 8.0 16.1 0.00 1.02 0.41 56 1003.8
20260507160503 15 260 4.8 12.9 0.00 1.02 0.41 59 1003.8
20260507160003 15 338 4.8 12.9 0.00 1.02 0.41 60 1003.9
20260507155503 15 273 4.8 12.9 0.00 1.02 0.41 57 1003.9
20260507155003 14 277 6.4 12.9 0.00 1.02 0.41 58 1004.0
20260507154503 14 334 4.8 12.9 0.00 1.02 0.41 57 1003.9
20260507154003 14 37 3.2 6.4 0.00 1.02 0.41 56 1004.0
20260507153504 14 12 4.8 14.5 0.00 1.02 0.41 58 1004.1
20260507153003 14 2 3.2 14.5 0.00 1.02 0.41 58 1004.0
20260507152503 14 309 3.2 6.4 0.00 1.02 0.41 61 1004.2
20260507152003 14 316 4.8 12.9 0.00 1.02 0.41 57 1004.1
20260507151503 14 318 4.8 12.9 0.00 1.02 0.41 60 1004.2
20260507151003 13 269 3.2 12.9 0.00 1.02 0.41 62 1004.4
20260507150503 13 234 3.2 12.9 0.00 1.02 0.41 63 1004.4
20260507150003 13 205 3.2 8.0 0.00 1.02 0.41 69 1004.5
20260507145503 12 196 4.8 9.7 0.00 1.02 0.41 65 1004.6
20260507145003 13 220 4.8 9.7 0.00 1.02 0.41 67 1004.7
20260507144503 13 266 3.2 9.7 0.00 1.02 0.41 66 1004.7
20260507144003 12 297 4.8 12.9 0.00 1.02 0.41 66 1004.7
20260507143503 13 309 4.8 12.9 0.00 1.02 0.41 65 1004.9
20260507143003 12 286 6.4 14.5 0.00 1.02 0.41 68 1004.9
20260507142503 12 274 4.8 14.5 0.00 1.02 0.41 69 1004.9
20260507142003 12 279 3.2 9.7 0.00 1.02 0.41 71 1005.1
20260507141503 12 302 4.8 16.1 0.00 1.02 0.41 68 1005.1
20260507141003 12 281 8.0 16.1 0.00 1.02 0.41 69 1005.0
20260507140524 12 251 6.4 14.5 0.00 1.02 0.41 69 1005.0
20260507140003 12 268 6.4 14.5 0.00 1.02 0.41 70 1005.1
20260507135503 12 294 9.7 17.7 0.00 1.02 0.41 72 1005.1
20260507135003 12 309 9.7 17.7 0.00 1.02 0.41 71 1005.3
20260507134503 12 309 6.4 16.1 0.00 1.02 0.41 72 1005.2
20260507134024 12 276 3.2 12.9 0.00 1.02 0.41 74 1005.2
20260507133503 11 278 3.2 12.9 0.00 1.02 0.41 74 1005.1
20260507133024 11 286 4.8 14.5 0.00 1.02 0.41 74 1005.1
20260507132503 11 277 6.4 14.5 0.00 1.02 0.41 74 1005.3
20260507132024 11 273 6.4 14.5 0.00 1.02 0.41 74 1005.3
20260507131524 11 265 8.0 14.5 0.00 1.02 0.41 74 1005.2
20260507131003 11 310 8.0 17.7 0.00 1.02 0.41 76 1005.2
20260507130503 10 338 9.7 17.7 0.00 1.02 0.41 74 1005.2
20260507130024 11 330 9.7 22.5 0.00 1.02 0.41 75 1005.3
20260507125524 10 318 11.3 22.5 0.00 1.02 0.41 75 1005.2
20260507125003 10 308 11.3 20.9 0.00 1.02 0.41 76 1005.2
20260507124503 10 310 8.0 20.9 0.00 1.02 0.41 77 1005.1
20260507124003 10 314 9.7 20.9 0.00 1.02 0.41 77 1005.1
20260507123524 10 313 11.3 22.5 0.00 1.02 0.41 77 1005.4
20260507123003 10 307 9.7 22.5 0.00 1.02 0.41 78 1005.2
20260507122503 10 300 6.4 22.5 0.00 1.02 0.41 80 1005.4
20260507122003 10 287 4.8 17.7 0.00 1.02 0.41 80 1005.4
20260507121524 10 290 8.0 17.7 0.00 1.02 0.41 81 1005.4
20260507121024 9 302 8.0 17.7 0.00 1.02 0.41 81 1005.2
20260507120503 9 286 6.4 16.1 0.00 1.02 0.41 82 1005.6
20260507120004 9 262 6.4 19.3 0.00 1.02 0.41 83 1005.6
20260507115503 8 274 6.4 19.3 0.00 1.02 0.41 83 1005.4
20260507115003 8 282 4.8 12.9 0.00 1.02 0.41 84 1005.3
20260507114503 8 260 4.8 12.9 0.00 1.02 0.41 85 1005.7
20260507114003 8 243 4.8 11.3 0.00 1.02 0.41 85 1005.8
20260507113503 8 257 6.4 14.5 0.00 1.02 0.41 85 1005.9
20260507113003 8 273 6.4 14.5 0.00 1.02 0.41 85 1005.6
20260507112503 8 279 6.4 16.1 0.00 1.02 0.41 85 1005.3
20260507112003 8 279 8.0 19.3 0.00 1.02 0.41 86 1005.7
20260507111503 8 280 8.0 19.3 0.00 1.02 0.41 86 1005.6
20260507111003 8 287 6.4 16.1 0.00 1.02 0.41 87 1005.1
20260507110503 8 289 6.4 16.1 0.00 1.02 0.41 87 1005.4
20260507110003 8 283 8.0 19.3 0.00 1.02 0.41 88 1005.3
20260507105503 8 277 8.0 19.3 0.00 1.02 0.41 88 1005.4
20260507105003 8 281 8.0 16.1 0.00 1.02 0.41 90 1005.4
20260507104503 7 296 6.4 16.1 0.00 1.02 0.41 90 1005.2
20260507104003 7 302 4.8 14.5 0.00 1.02 0.41 90 1005.1
20260507103503 7 285 6.4 12.9 0.00 1.02 0.41 90 1005.0
20260507103003 7 280 4.8 11.3 0.00 1.02 0.41 91 1005.2
20260507102524 7 289 4.8 12.9 0.00 1.02 0.41 91 1005.2
20260507102003 7 290 4.8 12.9 0.00 1.02 0.41 91 1005.0
20260507101503 7 296 6.4 16.1 0.00 1.02 0.41 91 1005.0
20260507101003 7 304 6.4 16.1 0.00 1.02 0.41 91 1004.9
20260507100503 7 294 6.4 16.1 0.00 1.02 0.41 91 1005.0
20260507100003 7 287 6.4 16.1 0.00 1.02 0.41 91 1005.1
20260507095503 7 285 6.4 16.1 0.00 1.02 0.41 91 1005.0
20260507095003 7 267 4.8 16.1 0.00 1.02 0.41 91 1005.0
20260507094503 7 270 3.2 11.3 0.00 1.02 0.41 91 1005.0
20260507094003 7 284 3.2 12.9 0.00 1.02 0.41 91 1004.9
20260507093503 7 285 4.8 12.9 0.00 1.02 0.41 91 1005.0
20260507093003 7 280 4.8 12.9 0.00 1.02 0.41 92 1005.0
20260507092524 7 276 4.8 12.9 0.00 1.02 0.41 92 1005.2
20260507092003 6 276 4.8 17.7 0.00 1.02 0.41 92 1005.3
20260507091503 6 286 6.4 17.7 0.00 1.02 0.41 92 1005.0